Regional Weather Roundup
Issued by NWS

Home | Current Version | Previous Version | Graphics & Text | Print | Product List | Glossary On
Versions: 1 2 3 4 5 6 7 8 9 10 11 12 13 14 15 16 17 18 19 20 21 22 23 24 25 26 27 28 29 30 31 32 33 34 35 36 37 38 39 40 41 42 43 44 45 46 47 48 49 50
000
ASUS45 KBOU 301107
RWRCO

WEATHER ROUNDUP FOR COLORADO
NATIONAL WEATHER SERVICE DENVER/BOULDER CO
500 AM MDT SAT AUG 30 2014

NOTE: "FAIR" INDICATES FEW OR NO CLOUDS BELOW 12000 FEET WITH NO
SIGNIFICANT WEATHER AND/OR OBSTRUCTIONS TO VISIBILITY.

COZ001>005-013-030-031-301200-
...NORTHWEST COLORADO...

CITY           SKY/WX    TMP DP  RH WIND       PRES   REMARKS
CRAIG          CLEAR     46  43  89 CALM      30.17S
HAYDEN         CLEAR     48  43  81 E9        30.19S
MEEKER         CLEAR     47  43  86 NE3       30.20R
MOUNT WERNER   NOT AVBL
STEAMBOAT SPGS CLEAR     46  43  90 CALM      30.22S
WALDEN         CLEAR     41  36  81 SE3       30.28F
$$

COZ006>008-011-301200-
...WEST CENTRAL VALLEYS...

CITY           SKY/WX    TMP DP  RH WIND       PRES   REMARKS
GRAND JUNCTION CLEAR     57  49  74 E9        30.09R
MONTROSE       PTCLDY    53  45  74 SE7       30.18S
EAGLE          CLEAR     45  43  93 CALM      30.28S
RIFLE          CLEAR     51  47  86 SE5       30.16S
DELTA          PTCLDY    55  47  73 NE3       30.14S
NUCLA          PTCLDY    54  43  66 SE6       30.20S
$$

COZ017>023-064>068-301200-
...SOUTHWEST COLORADO...

CITY           SKY/WX    TMP DP  RH WIND       PRES   REMARKS
DURANGO        CLEAR     49  41  74 CALM      30.22S
CORTEZ         CLEAR     47  43  86 E3        30.18R
PAGOSA SPRINGS CLEAR     46  37  70 CALM      30.30R
TELLURIDE      CLEAR     46  37  71 SE6       30.38R
WOLF CREEK PAS CLEAR     43  32  65 CALM      30.55S
$$

COZ009-010-012-014-032>034-037-058>063-301200-
...CENTRAL COLORADO...

CITY           SKY/WX    TMP DP  RH WIND       PRES   REMARKS
ASPEN          CLEAR     47  39  74 S6        30.28F
BUENA VISTA    CLEAR     41  36  83 CALM      30.34S
COPPER MTN     CLEAR     45  32  61 SW6       30.54F
BERTHOUD PASS  FAIR      36  36 100 W13       30.56F
COTTONWOOD PAS CLEAR     52  32  46 CALM      30.42F
GUNNISON       CLEAR     41  36  81 CALM      30.35S
KREMMLING      CLEAR     37  36  93 CALM      30.31F
LEADVILLE      CLEAR     33  31  92 NE5       30.42F WCI  29
MONARCH PASS   PTCLDY    39  32  75 SW14      30.64F
SALIDA         CLEAR     47  40  78 W6        30.39F
SUNLIGHT       CLEAR     48  39  71 CALM      30.48S
WILKERSON PASS NOT AVBL
$$

COZ069>075-301200-
...SAN LUIS VALLEY/SANGRE DE CRISTO MOUNTAINS...

CITY           SKY/WX    TMP DP  RH WIND       PRES   REMARKS
ALAMOSA        MOCLDY    45  41  86 SE3       30.30F
LA VETA PASS   NOT AVBL
SAGUACHE       NOT AVBL
$$

COZ035-036-038>040-301200-
...NORTHERN COLORADO FRONT RANGE...

CITY           SKY/WX    TMP DP  RH WIND       PRES   REMARKS
DENVER INTL AP CLEAR     56  45  66 SW9       30.10S
DMNS CITY PARK   N/A     57  44  62 S6        30.10S
AURORA         PTCLDY    55  43  64 S6        30.12F
FRONT RANGE AP CLEAR     52  46  82 S9        30.12S
ERIE MUNI ARPT CLEAR     48  46  91 CALM      30.08F
BOULDER MUN AP CLEAR     52  46  82 CALM      30.09F
CENTENNIAL     PTCLDY    54  42  64 SE5       30.13S
BROOMFIELD     CLEAR     54  45  71 CALM      30.11S
FORT COLLINS   CLEAR     54  52  94 CALM      30.09F
LONGMONT       CLEAR     49  47  90 W5        30.10F
$$

COZ041-046-047-076>085-087-088-301200-
...PIKES PEAK/PALMER DIVIDE AND SOUTHERN FOOTHILLS...

CITY           SKY/WX    TMP DP  RH WIND       PRES   REMARKS
COLO. SPRINGS  CLEAR     49  44  83 NE7       30.19F
A. F. ACADEMY  CLEAR     46  42  86 N8        30.20F
ELLICOTT       CLEAR     49  44  83 S8        30.18S
FALCON         CLEAR     50  41  71 SW3       30.23S
FORT CARSON    CLEAR     49  43  79 NW3       30.17F
LIMON          CLEAR     51  46  83 VRB3      30.13F
MONUMENT HILL  CLEAR     50  37  62 S9        30.21S
TRINIDAD       PTCLDY    58  48  69 W15       30.18F
$$

COZ042>045-048>051-090-091-301200-
...NORTHEAST COLORADO...

CITY           SKY/WX    TMP DP  RH WIND       PRES   REMARKS
GREELEY ARPT   CLEAR     48  43  81 CALM      30.08F
AKRON          MOCLDY    57  52  83 S8        30.07F
BURLINGTON     PTCLDY    56  53  90 W6        30.08S
WRAY             N/A    N/A N/A N/A CALM      30.05S
STERLING       CLEAR     55  54  94 CALM      30.03F
HOLYOKE        CLEAR     59  55  88 SW5       30.05S
FORT MORGAN    CLEAR     55  49  78 CALM      30.07S
$$

COZ086-089-092>099-301200-
...SOUTHEAST COLORADO...

CITY           SKY/WX    TMP DP  RH WIND       PRES   REMARKS
PUEBLO         CLEAR     56  46  69 NW5       30.11F
LA JUNTA       CLEAR     59  52  77 W6        30.09F
LAMAR          PTCLDY    59  53  80 CALM      30.06S
SPRINGFIELD      N/A     57  53  86 NW6       30.11S
$$


USA.gov is the U.S. government's official web portal to all federal, state and local government web resources and services.